AAW1102 KATL-KBOS

Flight info

Callsign AAW1102
Flight time N/A
Altitude 39000
Route PLMMR3 BURGG Q22 RBV Q419 JFK ROBUC3
Aircraft A339/H-SADE1E2E3GHIJ3J5M1P2RWXY/LB2D1

Departure

Time 2026-05-05 22:43
Airport Hartsfield Jackson Atlanta International Airport (KATL)

Arrival

Time N/A
Airport Boston Logan International Airport (KBOS)
Time Latitude Longitude Altitude Speed Heading
2026-05-05 22:08 33.65271 -84.41206 1004 ft 0 kts 50°
2026-05-05 22:28 33.65272 -84.41205 1004 ft 0 kts 50°
2026-05-05 22:29 33.65274 -84.41202 1004 ft 0 kts 50°
2026-05-05 22:29 33.65275 -84.41200 1007 ft 1 kts 50°
2026-05-05 22:30 33.65277 -84.41198 1007 ft 0 kts 51°
2026-05-05 22:32 33.65276 -84.41198 1007 ft 1 kts 51°
2026-05-05 22:32 33.65262 -84.41219 1004 ft 7 kts 45°
2026-05-05 22:32 33.65235 -84.41248 1005 ft 5 kts 30°
2026-05-05 22:33 33.65224 -84.41258 1004 ft 0 kts 11°
2026-05-05 22:34 33.65245 -84.41279 1003 ft 4 kts 301°
2026-05-05 22:35 33.65248 -84.41330 1007 ft 8 kts 274°
2026-05-05 22:35 33.65238 -84.41413 1003 ft 11 kts 254°
2026-05-05 22:35 33.65186 -84.41451 1010 ft 8 kts 190°
2026-05-05 22:35 33.65133 -84.41466 1006 ft 9 kts 203°
2026-05-05 22:36 33.65076 -84.41558 1007 ft 19 kts 251°
2026-05-05 22:36 33.65065 -84.41723 1009 ft 20 kts 270°
2026-05-05 22:36 33.65064 -84.41887 1014 ft 19 kts 269°
2026-05-05 22:36 33.65064 -84.42053 1015 ft 21 kts 270°
2026-05-05 22:37 33.65043 -84.42216 1017 ft 12 kts 234°
2026-05-05 22:37 33.64974 -84.42236 1018 ft 13 kts 184°
2026-05-05 22:37 33.64875 -84.42239 1017 ft 15 kts 180°
2026-05-05 22:37 33.64766 -84.42239 1020 ft 17 kts 180°
2026-05-05 22:38 33.64611 -84.42239 1020 ft 27 kts 180°
2026-05-05 22:38 33.64391 -84.42235 1016 ft 36 kts 180°
2026-05-05 22:38 33.64223 -84.42240 1015 ft 18 kts 181°
2026-05-05 22:38 33.64095 -84.42240 1016 ft 19 kts 179°
2026-05-05 22:39 33.63956 -84.42242 1013 ft 21 kts 182°
2026-05-05 22:39 33.63802 -84.42233 1011 ft 23 kts 181°
2026-05-05 22:39 33.63648 -84.42234 1012 ft 19 kts 180°
2026-05-05 22:39 33.63585 -84.42171 1010 ft 10 kts 105°
2026-05-05 22:40 33.63582 -84.42073 1008 ft 14 kts 90°
2026-05-05 22:40 33.63581 -84.41931 1003 ft 20 kts 91°
2026-05-05 22:40 33.63580 -84.41754 1001 ft 22 kts 89°
2026-05-05 22:40 33.63581 -84.41555 1000 ft 25 kts 89°
2026-05-05 22:41 33.63582 -84.41331 998 ft 28 kts 86°
2026-05-05 22:41 33.63582 -84.41100 998 ft 27 kts 93°
2026-05-05 22:41 33.63581 -84.40884 997 ft 20 kts 92°
2026-05-05 22:41 33.63572 -84.40779 999 ft 7 kts 110°
2026-05-05 22:42 33.63529 -84.40745 999 ft 9 kts 164°
2026-05-05 22:42 33.63475 -84.40774 995 ft 7 kts 238°
2026-05-05 22:42 33.63472 -84.40806 995 ft 0 kts 261°
2026-05-05 22:43 33.63472 -84.40814 993 ft 11 kts 263°
2026-05-05 22:43 33.63469 -84.41382 998 ft 123 kts 270°
2026-05-05 22:43 33.63483 -84.42758 1255 ft 190 kts 269°
2026-05-05 22:43 33.63594 -84.44409 2113 ft 202 kts 274°
2026-05-05 22:44 33.63669 -84.46042 3326 ft 201 kts 268°
2026-05-05 22:44 33.63457 -84.47751 4133 ft 217 kts 249°
2026-05-05 22:44 33.62769 -84.49427 4824 ft 234 kts 236°
2026-05-05 22:44 33.61895 -84.51190 5355 ft 256 kts 238°
2026-05-05 22:45 33.61029 -84.53095 6198 ft 262 kts 240°
2026-05-05 22:45 33.60183 -84.55055 7092 ft 265 kts 242°
2026-05-05 22:45 33.59206 -84.56935 7993 ft 267 kts 227°
2026-05-05 22:45 33.57680 -84.58198 8916 ft 272 kts 203°
2026-05-05 22:46 33.55794 -84.58568 9781 ft 281 kts 182°
2026-05-05 22:46 33.53835 -84.58518 10540 ft 288 kts 181°
2026-05-05 22:46 33.51817 -84.58455 11378 ft 292 kts 181°
2026-05-05 22:46 33.49764 -84.58346 12152 ft 300 kts 174°
2026-05-05 22:47 33.47794 -84.57466 12993 ft 310 kts 150°
2026-05-05 22:47 33.46193 -84.55656 13799 ft 321 kts 127°
2026-05-05 22:47 33.45277 -84.53191 14543 ft 329 kts 103°
2026-05-05 22:47 33.45101 -84.50465 15081 ft 342 kts 88°
2026-05-05 22:48 33.45278 -84.47527 15299 ft 364 kts 84°
2026-05-05 22:48 33.45496 -84.44422 15556 ft 383 kts 86°
2026-05-05 22:48 33.45623 -84.41206 16130 ft 389 kts 88°
2026-05-05 22:48 33.45672 -84.37943 16788 ft 393 kts 89°
2026-05-05 22:49 33.46027 -84.34678 17403 ft 398 kts 73°
2026-05-05 22:49 33.47179 -84.31656 18070 ft 401 kts 55°
2026-05-05 22:49 33.48976 -84.29099 18661 ft 402 kts 43°
2026-05-05 22:49 33.50995 -84.26756 19237 ft 405 kts 40°
2026-05-05 22:50 33.53036 -84.24449 19832 ft 408 kts 40°
2026-05-05 22:50 33.55091 -84.22071 20422 ft 412 kts 41°
2026-05-05 22:50 33.57138 -84.19636 21009 ft 416 kts 42°
2026-05-05 22:50 33.59185 -84.17154 21620 ft 420 kts 42°
2026-05-05 22:51 33.61245 -84.14635 22219 ft 424 kts 42°
2026-05-05 22:51 33.63313 -84.12097 22823 ft 427 kts 42°
2026-05-05 22:51 33.65402 -84.09532 23434 ft 431 kts 42°
2026-05-05 22:51 33.67508 -84.06947 23954 ft 436 kts 42°
2026-05-05 22:52 33.69638 -84.04334 24498 ft 439 kts 42°
2026-05-05 22:52 33.71776 -84.01707 25014 ft 442 kts 42°
2026-05-05 22:52 33.73908 -83.99088 25529 ft 446 kts 42°
2026-05-05 22:52 33.76108 -83.96383 26062 ft 449 kts 42°
2026-05-05 22:53 33.78296 -83.93693 26561 ft 452 kts 42°
2026-05-05 22:53 33.80481 -83.91004 27073 ft 456 kts 42°
2026-05-05 22:53 33.82710 -83.88260 27551 ft 459 kts 42°
2026-05-05 22:53 33.84947 -83.85501 28078 ft 462 kts 42°
2026-05-05 22:54 33.87206 -83.82716 28537 ft 466 kts 42°
2026-05-05 22:54 33.89471 -83.79914 28990 ft 469 kts 42°
2026-05-05 22:54 33.91756 -83.77087 29443 ft 472 kts 42°
2026-05-05 22:54 33.94063 -83.74232 29909 ft 476 kts 42°
2026-05-05 22:55 33.96219 -83.71245 30292 ft 482 kts 49°
2026-05-05 22:55 33.98205 -83.67980 30720 ft 485 kts 50°
2026-05-05 22:55 34.00220 -83.64683 31103 ft 489 kts 50°
2026-05-05 22:55 34.02251 -83.61375 31546 ft 491 kts 50°
2026-05-05 22:56 34.04294 -83.58052 31937 ft 494 kts 50°
2026-05-05 22:56 34.06343 -83.54715 32322 ft 497 kts 50°
2026-05-05 22:56 34.08408 -83.51346 32687 ft 499 kts 50°
2026-05-05 22:56 34.10450 -83.48009 32992 ft 502 kts 50°
2026-05-05 22:57 34.12523 -83.44617 33274 ft 503 kts 51°
2026-05-05 22:57 34.14614 -83.41193 33524 ft 505 kts 51°
2026-05-05 22:57 34.16691 -83.37787 33806 ft 505 kts 51°
2026-05-05 22:57 34.18780 -83.34359 34107 ft 504 kts 51°
2026-05-05 22:58 34.20856 -83.30949 34372 ft 503 kts 51°
2026-05-05 22:58 34.22931 -83.27539 34611 ft 503 kts 50°
2026-05-05 22:58 34.24977 -83.24171 34856 ft 503 kts 50°
2026-05-05 22:58 34.27048 -83.20760 35105 ft 503 kts 50°
2026-05-05 22:59 34.29118 -83.17349 35359 ft 503 kts 50°
2026-05-05 22:59 34.31182 -83.13943 35595 ft 503 kts 50°
2026-05-05 22:59 34.33258 -83.10535 35827 ft 503 kts 50°
2026-05-05 22:59 34.35347 -83.07125 36080 ft 503 kts 49°
2026-05-05 23:00 34.39524 -83.00306 36539 ft 503 kts 49°
2026-05-05 23:00 34.41605 -82.96898 36766 ft 503 kts 49°
2026-05-05 23:00 34.43685 -82.93486 36998 ft 504 kts 49°
2026-05-05 23:01 34.45738 -82.90114 37212 ft 504 kts 49°
2026-05-05 23:01 34.47818 -82.86695 37437 ft 504 kts 49°
2026-05-05 23:01 34.49904 -82.83265 37673 ft 504 kts 49°
2026-05-05 23:01 34.51988 -82.79833 37898 ft 504 kts 49°
2026-05-05 23:02 34.54074 -82.76395 38147 ft 504 kts 49°
2026-05-05 23:02 34.56128 -82.73006 38385 ft 504 kts 49°
2026-05-05 23:02 34.58205 -82.69578 38606 ft 504 kts 49°
2026-05-05 23:02 34.60281 -82.66148 38811 ft 503 kts 49°
2026-05-05 23:03 34.62358 -82.62712 38973 ft 504 kts 49°
2026-05-05 23:03 34.64431 -82.59281 38995 ft 503 kts 49°
2026-05-05 23:03 34.68555 -82.52408 39008 ft 503 kts 49°
2026-05-05 23:04 34.72593 -82.45510 39027 ft 503 kts 50°
2026-05-05 23:04 34.76662 -82.38550 39017 ft 503 kts 50°
2026-05-05 23:05 34.80728 -82.31599 39020 ft 503 kts 50°
2026-05-05 23:05 34.84763 -82.24692 38998 ft 504 kts 50°
2026-05-05 23:06 34.88821 -82.17730 39010 ft 504 kts 50°
2026-05-05 23:06 34.92876 -82.10762 38997 ft 504 kts 50°
2026-05-05 23:07 34.96935 -82.03770 39009 ft 504 kts 50°
2026-05-05 23:07 35.00956 -81.96832 38995 ft 504 kts 50°
2026-05-05 23:08 35.05027 -81.89854 39004 ft 503 kts 48°
2026-05-05 23:08 35.09275 -81.83063 38991 ft 502 kts 47°
2026-05-05 23:09 35.13491 -81.76335 39005 ft 502 kts 47°
2026-05-05 23:09 35.17705 -81.69536 38997 ft 502 kts 47°
2026-05-05 23:10 35.21925 -81.62696 39006 ft 501 kts 47°
2026-05-05 23:10 35.26099 -81.55919 39013 ft 501 kts 47°
2026-05-05 23:11 35.30295 -81.49094 38999 ft 501 kts 47°
2026-05-05 23:11 35.34488 -81.42260 38997 ft 501 kts 47°
2026-05-05 23:12 35.38673 -81.35424 38988 ft 501 kts 48°
2026-05-05 23:12 35.42850 -81.28591 38999 ft 501 kts 47°
2026-05-05 23:13 35.46995 -81.21795 39007 ft 501 kts 48°
2026-05-05 23:13 35.51172 -81.14936 39004 ft 501 kts 47°
2026-05-05 23:14 35.55340 -81.08075 39011 ft 501 kts 48°
2026-05-05 23:14 35.59506 -81.01208 38990 ft 501 kts 48°
2026-05-05 23:15 35.63636 -80.94381 39011 ft 501 kts 48°
2026-05-05 23:15 35.67766 -80.87544 38992 ft 501 kts 48°
2026-05-05 23:16 35.71943 -80.80612 39012 ft 500 kts 48°
2026-05-05 23:16 35.76056 -80.73776 38995 ft 500 kts 47°
2026-05-05 23:17 35.80204 -80.66867 38996 ft 500 kts 48°
2026-05-05 23:17 35.84331 -80.59981 38983 ft 500 kts 48°
2026-05-05 23:18 35.88463 -80.53069 38995 ft 499 kts 48°
2026-05-05 23:18 35.92554 -80.46215 38981 ft 499 kts 48°
2026-05-05 23:19 35.96672 -80.39301 38992 ft 499 kts 48°
2026-05-05 23:19 36.00788 -80.32392 38984 ft 499 kts 47°
2026-05-05 23:20 36.04901 -80.25488 38986 ft 498 kts 48°
2026-05-05 23:20 36.08982 -80.18621 38979 ft 498 kts 47°
2026-05-05 23:21 36.13079 -80.11709 38990 ft 498 kts 48°
2026-05-05 23:21 36.17180 -80.04779 38981 ft 498 kts 47°
2026-05-05 23:22 36.21242 -79.97896 38988 ft 497 kts 48°
2026-05-05 23:22 36.25437 -79.91125 38977 ft 490 kts 40°
2026-05-05 23:23 36.30080 -79.84922 38980 ft 489 kts 40°
2026-05-05 23:23 36.34770 -79.78862 38973 ft 488 kts 39°
2026-05-05 23:24 36.39530 -79.72830 38981 ft 488 kts 39°
2026-05-05 23:24 36.44250 -79.66855 38970 ft 488 kts 39°
2026-05-05 23:25 36.49002 -79.60825 38977 ft 487 kts 39°
2026-05-05 23:25 36.53737 -79.54800 38969 ft 487 kts 39°
2026-05-05 23:26 36.57662 -79.49792 38981 ft 487 kts 39°
2026-05-05 23:26 36.62392 -79.43749 38979 ft 486 kts 39°
2026-05-05 23:27 36.67116 -79.37701 38979 ft 486 kts 38°
2026-05-05 23:27 36.71827 -79.31660 38978 ft 486 kts 38°
2026-05-05 23:28 36.76508 -79.25645 38976 ft 486 kts 38°
2026-05-05 23:28 36.81216 -79.19584 38969 ft 485 kts 38°
2026-05-05 23:29 36.85910 -79.13528 38969 ft 485 kts 38°
2026-05-05 23:29 36.90607 -79.07461 38964 ft 485 kts 38°
2026-05-05 23:30 36.95294 -79.01392 38959 ft 485 kts 38°
2026-05-05 23:30 36.99986 -78.95308 38962 ft 485 kts 39°
2026-05-05 23:31 37.04639 -78.89253 38965 ft 485 kts 39°
2026-05-05 23:31 37.09312 -78.83167 38961 ft 485 kts 39°
2026-05-05 23:32 37.14000 -78.77051 38963 ft 485 kts 39°
2026-05-05 23:32 37.18677 -78.70940 38962 ft 486 kts 39°
2026-05-05 23:33 37.21014 -78.67868 38727 ft 483 kts 36°
2026-05-05 23:33 37.23304 -78.64841 38944 ft 478 kts 36°
2026-05-05 23:33 37.27907 -78.58809 38949 ft 478 kts 36°
2026-05-05 23:34 37.32513 -78.52766 38943 ft 479 kts 36°
2026-05-05 23:34 37.37114 -78.46708 38947 ft 479 kts 36°
2026-05-05 23:35 37.41677 -78.40691 38943 ft 479 kts 36°
2026-05-05 23:35 37.46274 -78.34619 38945 ft 479 kts 37°
2026-05-05 23:36 37.50863 -78.28544 38946 ft 479 kts 37°
2026-05-05 23:36 37.55449 -78.22462 38950 ft 479 kts 37°
2026-05-05 23:37 37.60034 -78.16369 38948 ft 479 kts 37°
2026-05-05 23:37 37.63794 -78.11363 38958 ft 478 kts 37°
2026-05-05 23:38 37.68375 -78.05256 38938 ft 479 kts 37°
2026-05-05 23:38 37.72953 -77.99139 38949 ft 479 kts 37°
2026-05-05 23:39 37.77524 -77.93019 38952 ft 479 kts 37°
2026-05-05 23:39 37.82099 -77.86881 38945 ft 479 kts 37°
2026-05-05 23:40 37.86672 -77.80736 38941 ft 479 kts 37°
2026-05-05 23:40 37.91237 -77.74588 38948 ft 479 kts 37°
2026-05-05 23:41 37.95772 -77.68466 38947 ft 480 kts 38°
2026-05-05 23:41 38.00340 -77.62290 38937 ft 480 kts 38°
2026-05-05 23:42 38.04892 -77.56123 38927 ft 480 kts 38°
2026-05-05 23:42 38.09471 -77.49908 38925 ft 480 kts 38°
2026-05-05 23:43 38.14016 -77.43727 38923 ft 480 kts 38°
2026-05-05 23:43 38.18573 -77.37514 38916 ft 480 kts 38°
2026-05-05 23:44 38.23137 -77.31285 38921 ft 480 kts 38°
2026-05-05 23:44 38.27663 -77.25091 38919 ft 480 kts 38°
2026-05-05 23:45 38.32192 -77.18884 38917 ft 480 kts 38°
2026-05-05 23:45 38.36742 -77.12632 38924 ft 480 kts 39°
2026-05-05 23:46 38.41288 -77.06375 38924 ft 480 kts 39°
2026-05-05 23:46 38.45771 -77.00185 38905 ft 467 kts 39°
2026-05-05 23:47 38.50165 -76.94111 38889 ft 469 kts 38°
2026-05-05 23:47 38.54556 -76.88038 38839 ft 463 kts 39°
2026-05-05 23:48 38.56729 -76.85019 38524 ft 459 kts 39°
2026-05-05 23:48 38.58892 -76.82020 37863 ft 459 kts 39°
2026-05-05 23:48 38.61052 -76.79029 37198 ft 460 kts 39°
2026-05-05 23:48 38.63217 -76.76025 36965 ft 461 kts 39°
2026-05-05 23:49 38.67599 -76.69937 36904 ft 469 kts 40°
2026-05-05 23:49 38.71996 -76.63792 36908 ft 467 kts 40°
2026-05-05 23:50 38.76363 -76.57679 36910 ft 461 kts 40°
2026-05-05 23:50 38.80706 -76.51600 36908 ft 463 kts 40°
2026-05-05 23:51 38.85048 -76.45507 36912 ft 462 kts 40°
2026-05-05 23:51 38.89363 -76.39438 36920 ft 462 kts 40°
2026-05-05 23:52 38.93699 -76.33328 36918 ft 462 kts 40°
2026-05-05 23:52 38.98004 -76.27251 36916 ft 462 kts 40°
2026-05-05 23:53 39.02340 -76.21117 36916 ft 462 kts 40°
2026-05-05 23:53 39.06644 -76.15016 36911 ft 462 kts 40°
2026-05-05 23:54 39.10964 -76.08881 36911 ft 462 kts 40°
2026-05-05 23:54 39.15261 -76.02768 36900 ft 462 kts 40°
2026-05-05 23:55 39.19576 -75.96616 36899 ft 462 kts 41°
2026-05-05 23:55 39.23892 -75.90450 36899 ft 462 kts 41°
2026-05-05 23:56 39.28211 -75.84267 36907 ft 462 kts 41°
2026-05-05 23:56 39.32496 -75.78121 36907 ft 462 kts 41°
2026-05-05 23:57 39.36807 -75.71926 36896 ft 462 kts 41°
2026-05-05 23:57 39.41108 -75.65734 36889 ft 462 kts 41°
2026-05-05 23:58 39.45388 -75.59559 36890 ft 463 kts 41°
2026-05-05 23:58 39.49687 -75.53343 36899 ft 463 kts 41°
2026-05-05 23:59 39.53962 -75.47151 36897 ft 463 kts 41°
2026-05-05 23:59 39.58256 -75.40918 36901 ft 463 kts 41°
2026-05-06 00:00 39.62536 -75.34693 36903 ft 463 kts 42°
2026-05-06 00:00 39.66828 -75.28438 36876 ft 463 kts 42°
2026-05-06 00:01 39.71109 -75.22186 36900 ft 463 kts 42°
2026-05-06 00:01 39.75359 -75.15951 36912 ft 463 kts 43°
2026-05-06 00:02 39.79457 -75.09486 36567 ft 462 kts 46°
2026-05-06 00:02 39.81450 -75.06196 35986 ft 461 kts 45°
2026-05-06 00:02 39.83482 -75.02946 35312 ft 462 kts 44°
2026-05-06 00:03 39.85522 -74.99778 34963 ft 462 kts 44°
2026-05-06 00:03 39.87618 -74.96578 34792 ft 467 kts 44°
2026-05-06 00:03 39.89745 -74.93353 34636 ft 469 kts 44°
2026-05-06 00:03 39.91874 -74.90124 34463 ft 468 kts 44°
2026-05-06 00:04 39.94000 -74.86896 34303 ft 469 kts 44°
2026-05-06 00:04 39.96118 -74.83679 34133 ft 469 kts 44°
2026-05-06 00:04 39.98249 -74.80436 33972 ft 470 kts 44°
2026-05-06 00:04 40.00359 -74.77221 33785 ft 470 kts 44°
2026-05-06 00:05 40.04624 -74.70720 33400 ft 472 kts 44°
2026-05-06 00:05 40.06757 -74.67461 33221 ft 471 kts 44°
2026-05-06 00:05 40.08884 -74.64206 33026 ft 470 kts 44°
2026-05-06 00:06 40.10984 -74.60988 32847 ft 469 kts 44°
2026-05-06 00:06 40.13104 -74.57738 32661 ft 468 kts 45°
2026-05-06 00:06 40.15213 -74.54499 32473 ft 467 kts 45°
2026-05-06 00:06 40.17318 -74.51264 32278 ft 466 kts 45°
2026-05-06 00:07 40.19425 -74.48024 32104 ft 465 kts 45°
2026-05-06 00:07 40.21517 -74.44803 31920 ft 465 kts 45°
2026-05-06 00:07 40.23609 -74.41576 31754 ft 463 kts 45°
2026-05-06 00:07 40.25675 -74.38389 31576 ft 463 kts 45°
2026-05-06 00:08 40.27753 -74.35179 31411 ft 459 kts 46°
2026-05-06 00:08 40.29809 -74.31997 31235 ft 456 kts 46°
2026-05-06 00:08 40.31857 -74.28828 31066 ft 455 kts 46°
2026-05-06 00:08 40.33910 -74.25650 30887 ft 455 kts 46°
2026-05-06 00:09 40.35951 -74.22486 30722 ft 454 kts 46°
2026-05-06 00:09 40.37988 -74.19322 30543 ft 453 kts 46°
2026-05-06 00:09 40.39985 -74.16218 30377 ft 452 kts 46°
2026-05-06 00:09 40.42018 -74.13055 30199 ft 450 kts 46°
2026-05-06 00:10 40.44033 -74.09917 30032 ft 450 kts 46°
2026-05-06 00:10 40.46050 -74.06774 29818 ft 449 kts 46°
2026-05-06 00:10 40.48060 -74.03637 29623 ft 447 kts 46°
2026-05-06 00:10 40.50057 -74.00517 29436 ft 446 kts 47°
2026-05-06 00:11 40.52051 -73.97398 29254 ft 445 kts 47°
2026-05-06 00:11 40.54046 -73.94275 29065 ft 444 kts 47°
2026-05-06 00:11 40.56008 -73.91202 28881 ft 443 kts 47°
2026-05-06 00:11 40.57988 -73.88096 28692 ft 442 kts 47°
2026-05-06 00:12 40.59964 -73.84994 28501 ft 441 kts 47°
2026-05-06 00:12 40.61930 -73.81904 28302 ft 439 kts 47°
2026-05-06 00:12 40.63890 -73.78822 28124 ft 438 kts 47°
2026-05-06 00:12 40.65846 -73.75741 27935 ft 437 kts 47°
2026-05-06 00:13 40.67135 -73.73710 27821 ft 436 kts 47°
2026-05-06 00:13 40.69709 -73.69649 27572 ft 435 kts 47°
2026-05-06 00:13 40.71645 -73.66591 27388 ft 434 kts 47°
2026-05-06 00:13 40.73578 -73.63536 27199 ft 432 kts 47°
2026-05-06 00:14 40.75497 -73.60498 27035 ft 432 kts 47°
2026-05-06 00:14 40.76795 -73.58442 26934 ft 431 kts 47°
2026-05-06 00:14 40.78715 -73.55398 26912 ft 430 kts 47°
2026-05-06 00:14 40.80605 -73.52398 26912 ft 431 kts 47°
2026-05-06 00:15 40.82528 -73.49345 26914 ft 431 kts 47°
2026-05-06 00:15 40.84444 -73.46299 26912 ft 431 kts 47°
2026-05-06 00:15 40.86370 -73.43246 26911 ft 431 kts 47°
2026-05-06 00:15 40.88346 -73.40267 26772 ft 427 kts 45°
2026-05-06 00:16 40.90334 -73.37367 26315 ft 425 kts 45°
2026-05-06 00:16 40.92324 -73.34477 25780 ft 422 kts 45°
2026-05-06 00:16 40.94281 -73.31619 25131 ft 418 kts 45°
2026-05-06 00:16 40.96223 -73.28761 24480 ft 415 kts 45°
2026-05-06 00:17 40.98120 -73.25957 23792 ft 412 kts 46°
2026-05-06 00:17 41.00043 -73.23105 23183 ft 407 kts 46°
2026-05-06 00:17 41.01894 -73.20353 22935 ft 405 kts 46°
2026-05-06 00:17 41.03774 -73.17559 22885 ft 408 kts 46°
2026-05-06 00:18 41.05690 -73.14711 22881 ft 423 kts 46°
2026-05-06 00:18 41.07694 -73.11734 22889 ft 443 kts 46°
2026-05-06 00:18 41.09766 -73.08648 22870 ft 448 kts 46°
2026-05-06 00:18 41.11835 -73.05558 22869 ft 447 kts 46°
2026-05-06 00:19 41.13901 -73.02466 22885 ft 447 kts 46°
2026-05-06 00:19 41.15965 -72.99377 22888 ft 447 kts 46°
2026-05-06 00:19 41.18032 -72.96280 22897 ft 447 kts 46°
2026-05-06 00:19 41.20051 -72.93174 22915 ft 448 kts 50°
2026-05-06 00:20 41.21821 -72.89746 22921 ft 450 kts 58°
2026-05-06 00:20 41.23269 -72.86067 22901 ft 451 kts 62°
2026-05-06 00:20 41.24671 -72.82344 22826 ft 451 kts 62°
2026-05-06 00:20 41.26090 -72.78620 22567 ft 449 kts 62°
2026-05-06 00:21 41.27509 -72.74913 22296 ft 448 kts 62°
2026-05-06 00:21 41.28922 -72.71215 22036 ft 446 kts 62°
2026-05-06 00:21 41.30307 -72.67590 21803 ft 445 kts 62°
2026-05-06 00:21 41.31725 -72.63868 21542 ft 444 kts 62°
2026-05-06 00:22 41.33098 -72.60257 21303 ft 443 kts 62°
2026-05-06 00:22 41.34488 -72.56599 21050 ft 441 kts 62°
2026-05-06 00:22 41.35872 -72.52948 20949 ft 440 kts 62°
2026-05-06 00:22 41.37252 -72.49304 20937 ft 441 kts 62°
2026-05-06 00:23 41.38635 -72.45650 20932 ft 441 kts 62°
2026-05-06 00:23 41.39997 -72.42045 20932 ft 441 kts 62°
2026-05-06 00:23 41.41375 -72.38394 20933 ft 441 kts 62°
2026-05-06 00:23 41.42752 -72.34741 20931 ft 441 kts 62°
2026-05-06 00:24 41.44131 -72.31076 20924 ft 441 kts 62°
2026-05-06 00:24 41.45510 -72.27409 20924 ft 441 kts 62°
2026-05-06 00:24 41.46885 -72.23747 20919 ft 441 kts 62°
2026-05-06 00:24 41.48261 -72.20076 20921 ft 441 kts 62°
2026-05-06 00:25 41.49624 -72.16393 20740 ft 441 kts 63°
2026-05-06 00:25 41.50960 -72.12736 20505 ft 439 kts 63°
2026-05-06 00:25 41.52293 -72.09073 20254 ft 438 kts 63°
2026-05-06 00:25 41.53621 -72.05429 20007 ft 437 kts 63°
2026-05-06 00:26 41.54934 -72.01825 19767 ft 435 kts 63°
2026-05-06 00:26 41.56177 -71.98149 19513 ft 434 kts 68°
2026-05-06 00:26 41.57292 -71.94394 19277 ft 433 kts 68°
2026-05-06 00:26 41.58411 -71.90644 19052 ft 432 kts 68°
2026-05-06 00:27 41.59522 -71.86928 18815 ft 430 kts 68°
2026-05-06 00:27 41.60626 -71.83224 18584 ft 428 kts 68°
2026-05-06 00:27 41.61713 -71.79550 18351 ft 427 kts 68°
2026-05-06 00:27 41.62799 -71.75864 18086 ft 425 kts 69°
2026-05-06 00:28 41.63878 -71.72197 17807 ft 423 kts 69°
2026-05-06 00:28 41.64954 -71.68533 17576 ft 421 kts 69°
2026-05-06 00:28 41.66011 -71.64935 17432 ft 408 kts 69°
2026-05-06 00:28 41.67028 -71.61470 17265 ft 391 kts 69°
2026-05-06 00:29 41.67998 -71.58161 16952 ft 374 kts 69°
2026-05-06 00:29 41.68938 -71.54952 16413 ft 366 kts 69°
2026-05-06 00:29 41.69854 -71.51817 16136 ft 361 kts 69°
2026-05-06 00:29 41.70774 -71.48667 15883 ft 363 kts 69°
2026-05-06 00:30 41.71676 -71.45577 15634 ft 360 kts 69°
2026-05-06 00:30 41.72649 -71.42497 15381 ft 359 kts 62°
2026-05-06 00:30 41.73886 -71.39598 15143 ft 357 kts 59°
2026-05-06 00:30 41.75134 -71.36731 14898 ft 356 kts 59°
2026-05-06 00:31 41.76374 -71.33854 14663 ft 355 kts 59°
2026-05-06 00:31 41.77603 -71.30987 14420 ft 354 kts 59°
2026-05-06 00:31 41.78814 -71.28152 14191 ft 353 kts 59°
2026-05-06 00:31 41.80033 -71.25290 13865 ft 351 kts 59°
2026-05-06 00:32 41.81238 -71.22458 13406 ft 345 kts 59°
2026-05-06 00:32 41.82399 -71.19725 12972 ft 335 kts 59°
2026-05-06 00:32 41.83529 -71.17065 12560 ft 323 kts 59°
2026-05-06 00:32 41.84625 -71.14480 12161 ft 318 kts 59°
2026-05-06 00:33 41.85783 -71.11752 12035 ft 347 kts 59°
2026-05-06 00:33 41.86989 -71.08942 11997 ft 345 kts 59°
2026-05-06 00:33 41.88180 -71.06193 11839 ft 336 kts 59°
2026-05-06 00:33 41.89345 -71.03505 11387 ft 329 kts 59°
2026-05-06 00:34 41.90484 -71.00874 11212 ft 328 kts 59°
2026-05-06 00:34 41.91631 -70.98218 11028 ft 328 kts 59°
2026-05-06 00:34 41.92770 -70.95576 10810 ft 325 kts 59°
2026-05-06 00:34 41.93885 -70.92984 10621 ft 325 kts 59°
2026-05-06 00:35 41.95018 -70.90350 10425 ft 325 kts 59°
2026-05-06 00:35 41.96150 -70.87714 10216 ft 323 kts 59°
2026-05-06 00:35 41.97271 -70.85102 10027 ft 322 kts 59°
2026-05-06 00:35 41.98392 -70.82487 9821 ft 322 kts 59°
2026-05-06 00:36 41.99509 -70.79881 9627 ft 321 kts 59°
2026-05-06 00:36 42.00616 -70.77301 9427 ft 320 kts 59°
2026-05-06 00:36 42.01927 -70.74895 9217 ft 319 kts 46°
2026-05-06 00:36 42.03431 -70.72688 9023 ft 319 kts 45°
2026-05-06 00:37 42.04926 -70.70486 8822 ft 319 kts 46°
2026-05-06 00:37 42.06417 -70.68273 8641 ft 318 kts 46°
2026-05-06 00:37 42.07878 -70.66088 8440 ft 317 kts 46°
2026-05-06 00:37 42.09356 -70.63871 8244 ft 318 kts 46°
2026-05-06 00:38 42.11003 -70.61925 8054 ft 312 kts 27°
2026-05-06 00:38 42.12994 -70.60904 7765 ft 303 kts
2026-05-06 00:38 42.15061 -70.60376 7471 ft 302 kts
2026-05-06 00:38 42.17100 -70.59857 7189 ft 301 kts
2026-05-06 00:39 42.19167 -70.59311 6893 ft 301 kts